Location: Hurecourt
(47.9030°N, 6.0653°E)
Time: 11:00:06
(UTC+00:00)

Cosmos 1356 - Pass Details

Date: 14 July 2020
Orbit: 443 x 448 km, 81.1° (Epoch: 05 August)

Event Time Altitude Azimuth Distance (km) Brightness Sun altitude
Exits shadow 02:04:38 15° 168° (SSE) 1,298 5.3 -13.4°
Maximum altitude 02:07:16 48° 97° (E) 600 4.2 -13.2°
Drops below altitude 10° 02:10:36 10° 22° (NNE) 1,583 7.5 -12.9°
Sets 02:12:43 0° 17° (NNE) 2,459 8.7 -12.7°
